Time,TemperatureF,DewpointF,PressureIn,WindDirection,WindDirectionDegrees,WindSpeedMPH,WindSpeedGustMPH,Humidity,HourlyPrecipIn,Conditions,Clouds,dailyrainin,SoftwareType,DateUTC
2013-08-27 00:01:00,64.9,64.3,28.99,SE,135,1.7,0.0,98,0.00,CLR,FEW,0.00,WeatherDisplay:10.37,2013-08-27 04:01:00,
2013-08-27 00:02:00,65.3,64.7,28.99,SSE,158,4.6,4.6,98,0.00,CLR,FEW,0.00,WeatherDisplay:10.37,2013-08-27 04:02:00,
2013-08-27 00:07:00,65.3,64.7,28.99,South,180,2.3,2.3,98,0.00,CLR,FEW,0.00,WeatherDisplay:10.37,2013-08-27 04:07:00,
2013-08-27 00:12:00,64.9,64.3,28.99,NNE,22,0.0,0.0,98,0.00,CLR,FEW,0.00,WeatherDisplay:10.37,2013-08-27 04:12:00,
2013-08-27 00:17:00,64.8,64.2,28.99,East,90,0.0,0.0,98,0.00,CLR,FEW,0.00,WeatherDisplay:10.37,2013-08-27 04:17:00,
2013-08-27 00:22:00,64.6,64.0,28.99,North,360,0.0,0.0,98,0.00,CLR,FEW,0.00,WeatherDisplay:10.37,2013-08-27 04:22:00,
2013-08-27 00:27:00,64.6,64.0,28.99,NNW,338,0.0,0.0,98,0.00,CLR,FEW,0.00,WeatherDisplay:10.37,2013-08-27 04:27:00,
2013-08-27 00:32:00,64.6,64.0,28.99,NNW,338,0.0,0.0,98,0.00,CLR,FEW,0.00,WeatherDisplay:10.37,2013-08-27 04:32:00,
2013-08-27 00:37:00,64.2,63.6,29.00,SSE,158,0.0,0.0,98,0.00,CLR,FEW,0.00,WeatherDisplay:10.37,2013-08-27 04:37:00,
2013-08-27 00:42:00,64.2,63.6,29.00,NE,45,0.0,0.0,98,0.00,CLR,FEW,0.00,WeatherDisplay:10.37,2013-08-27 04:42:00,
2013-08-27 00:47:00,64.2,63.6,28.99,NE,45,0.0,0.0,98,0.00,CLR,FEW,0.00,WeatherDisplay:10.37,2013-08-27 04:47:00,
2013-08-27 00:52:00,64.2,63.6,28.99,ENE,68,0.0,0.0,98,0.00,CLR,FEW,0.00,WeatherDisplay:10.37,2013-08-27 04:52:00,
2013-08-27 00:57:00,64.0,63.4,28.99,NNW,338,0.0,0.0,98,0.00,CLR,FEW,0.00,WeatherDisplay:10.37,2013-08-27 04:57:00,
2013-08-27 01:02:00,64.4,63.8,28.99,NNW,338,0.0,0.0,98,0.00,CLR,FEW,0.00,WeatherDisplay:10.37,2013-08-27 05:02:00,
2013-08-27 01:07:00,64.4,63.8,28.99,NNW,338,0.0,0.0,98,0.00,CLR,FEW,0.00,WeatherDisplay:10.37,2013-08-27 05:07:00,
2013-08-27 01:13:00,64.4,63.8,28.99,NNW,338,0.0,0.0,98,0.00,CLR,FEW,0.00,WeatherDisplay:10.37,2013-08-27 05:13:00,
2013-08-27 01:18:00,64.4,63.8,28.99,SSE,158,0.0,0.0,98,0.00,CLR,FEW,0.00,WeatherDisplay:10.37,2013-08-27 05:18:00,
2013-08-27 01:23:00,63.9,63.3,28.99,WSW,248,0.0,0.0,98,0.00,CLR,FEW,0.00,WeatherDisplay:10.37,2013-08-27 05:23:00,
2013-08-27 01:28:00,63.7,63.1,28.99,NW,315,0.0,0.0,98,0.00,CLR,FEW,0.00,WeatherDisplay:10.37,2013-08-27 05:28:00,
2013-08-27 01:33:00,63.7,63.1,28.99,WNW,292,0.0,0.0,98,0.00,CLR,FEW,0.00,WeatherDisplay:10.37,2013-08-27 05:33:00,
2013-08-27 01:38:00,63.5,62.9,28.99,ESE,112,0.0,0.0,98,0.00,CLR,FEW,0.00,WeatherDisplay:10.37,2013-08-27 05:38:00,
2013-08-27 01:43:00,63.1,62.5,28.99,WSW,248,0.0,0.0,98,0.00,CLR,FEW,0.00,WeatherDisplay:10.37,2013-08-27 05:43:00,
2013-08-27 01:48:00,63.1,62.5,28.98,WSW,248,0.0,0.0,98,0.00,CLR,FEW,0.00,WeatherDisplay:10.37,2013-08-27 05:48:00,
2013-08-27 01:53:00,63.1,62.5,28.98,WSW,248,0.0,0.0,98,0.00,CLR,FEW,0.00,WeatherDisplay:10.37,2013-08-27 05:53:00,
2013-08-27 01:58:00,63.1,62.5,28.98,WSW,248,0.0,0.0,98,0.00,CLR,FEW,0.00,WeatherDisplay:10.37,2013-08-27 05:58:00,
2013-08-27 02:03:00,63.1,62.5,28.98,WSW,248,0.0,0.0,98,0.00,CLR,FEW,0.00,WeatherDisplay:10.37,2013-08-27 06:03:00,
2013-08-27 02:08:00,63.1,62.5,28.98,SW,225,0.0,0.0,98,0.00,CLR,FEW,0.00,WeatherDisplay:10.37,2013-08-27 06:08:00,
2013-08-27 02:13:00,63.0,62.4,28.97,West,270,0.0,0.0,98,0.00,CLR,FEW,0.00,WeatherDisplay:10.37,2013-08-27 06:13:00,
2013-08-27 02:18:00,63.0,62.4,28.97,SW,225,0.0,0.0,98,0.00,CLR,FEW,0.00,WeatherDisplay:10.37,2013-08-27 06:18:00,
2013-08-27 02:23:00,63.0,62.4,28.97,SW,225,0.0,0.0,98,0.00,CLR,FEW,0.00,WeatherDisplay:10.37,2013-08-27 06:23:00,
2013-08-27 02:29:00,63.0,62.4,28.97,West,270,0.0,0.0,98,0.00,CLR,FEW,0.00,WeatherDisplay:10.37,2013-08-27 06:29:00,
2013-08-27 02:34:00,63.0,62.4,28.97,NW,315,0.0,0.0,98,0.00,CLR,FEW,0.00,WeatherDisplay:10.37,2013-08-27 06:34:00,
2013-08-27 02:39:00,63.0,62.4,28.97,WNW,292,0.0,0.0,98,0.00,CLR,FEW,0.00,WeatherDisplay:10.37,2013-08-27 06:39:00,
2013-08-27 02:44:00,62.6,62.0,28.97,WSW,248,0.0,0.0,98,0.00,CLR,FEW,0.00,WeatherDisplay:10.37,2013-08-27 06:44:00,
2013-08-27 02:49:00,62.6,62.0,28.97,West,270,0.0,0.0,98,0.00,CLR,FEW,0.00,WeatherDisplay:10.37,2013-08-27 06:49:00,
2013-08-27 02:54:00,62.6,62.0,28.97,WSW,248,0.0,0.0,98,0.00,CLR,FEW,0.00,WeatherDisplay:10.37,2013-08-27 06:54:00,
2013-08-27 02:59:00,62.4,61.8,28.97,West,270,0.0,0.0,98,0.00,CLR,FEW,0.00,WeatherDisplay:10.37,2013-08-27 06:59:00,
2013-08-27 03:04:00,62.4,61.8,28.97,North,360,0.0,0.0,98,0.00,CLR,FEW,0.00,WeatherDisplay:10.37,2013-08-27 07:04:00,
2013-08-27 03:09:00,62.4,61.8,28.97,North,360,0.0,0.0,98,0.00,CLR,FEW,0.00,WeatherDisplay:10.37,2013-08-27 07:09:00,
2013-08-27 03:14:00,62.4,61.8,28.96,SW,225,0.0,0.0,98,0.00,CLR,FEW,0.00,WeatherDisplay:10.37,2013-08-27 07:14:00,
2013-08-27 03:19:00,62.1,61.5,28.96,West,270,0.0,0.0,98,0.00,CLR,FEW,0.00,WeatherDisplay:10.37,2013-08-27 07:19:00,
2013-08-27 03:24:00,62.1,61.5,28.97,NNW,338,0.0,0.0,98,0.00,CLR,FEW,0.00,WeatherDisplay:10.37,2013-08-27 07:24:00,
2013-08-27 03:29:00,62.4,61.8,28.97,West,270,0.0,0.0,98,0.00,CLR,FEW,0.00,WeatherDisplay:10.37,2013-08-27 07:29:00,
2013-08-27 03:34:00,62.2,61.6,28.96,SW,225,0.0,0.0,98,0.00,CLR,FEW,0.00,WeatherDisplay:10.37,2013-08-27 07:34:00,
2013-08-27 03:39:00,62.1,61.5,28.96,NNW,338,0.0,0.0,98,0.00,CLR,FEW,0.00,WeatherDisplay:10.37,2013-08-27 07:39:00,
2013-08-27 03:45:00,62.1,61.5,28.96,NNE,22,0.0,0.0,98,0.00,CLR,FEW,0.00,WeatherDisplay:10.37,2013-08-27 07:45:00,
2013-08-27 03:50:00,62.1,61.5,28.96,West,270,0.0,0.0,98,0.00,CLR,FEW,0.00,WeatherDisplay:10.37,2013-08-27 07:50:00,
2013-08-27 03:55:00,62.1,61.5,28.96,SSW,202,0.0,0.0,98,0.00,CLR,FEW,0.00,WeatherDisplay:10.37,2013-08-27 07:55:00,
2013-08-27 04:00:00,62.2,61.6,28.96,SSW,202,0.0,0.0,98,0.00,CLR,FEW,0.00,WeatherDisplay:10.37,2013-08-27 08:00:00,
2013-08-27 04:05:00,62.1,61.5,28.96,SSW,202,0.0,0.0,98,0.00,CLR,FEW,0.00,WeatherDisplay:10.37,2013-08-27 08:05:00,
2013-08-27 04:10:00,61.9,61.3,28.96,WNW,292,0.0,0.0,98,0.00,CLR,FEW,0.00,WeatherDisplay:10.37,2013-08-27 08:10:00,
2013-08-27 04:15:00,62.1,61.5,28.95,SW,225,0.0,0.0,98,0.00,CLR,FEW,0.00,WeatherDisplay:10.37,2013-08-27 08:15:00,
2013-08-27 04:20:00,62.1,61.5,28.95,WSW,248,0.0,0.0,98,0.00,CLR,FEW,0.00,WeatherDisplay:10.37,2013-08-27 08:20:00,
2013-08-27 04:25:00,62.1,61.5,28.95,NNW,338,0.0,0.0,98,0.00,CLR,FEW,0.00,WeatherDisplay:10.37,2013-08-27 08:25:00,
2013-08-27 04:30:00,61.9,61.3,28.95,SSW,202,0.0,0.0,98,0.00,CLR,FEW,0.00,WeatherDisplay:10.37,2013-08-27 08:30:00,
2013-08-27 04:35:00,61.7,61.1,28.95,South,180,0.0,0.0,98,0.00,CLR,FEW,0.00,WeatherDisplay:10.37,2013-08-27 08:35:00,
2013-08-27 04:40:00,61.5,60.9,28.95,NNE,22,0.0,0.0,98,0.00,CLR,FEW,0.00,WeatherDisplay:10.37,2013-08-27 08:40:00,
2013-08-27 04:45:00,61.3,60.7,28.95,West,270,0.0,0.0,98,0.00,CLR,FEW,0.00,WeatherDisplay:10.37,2013-08-27 08:45:00,
2013-08-27 04:50:00,61.9,61.3,28.94,West,270,0.0,0.0,98,0.00,CLR,FEW,0.00,WeatherDisplay:10.37,2013-08-27 08:50:00,
2013-08-27 04:55:00,61.3,60.7,28.94,West,270,0.0,0.0,98,0.00,CLR,FEW,0.00,WeatherDisplay:10.37,2013-08-27 08:55:00,
2013-08-27 05:01:00,61.3,60.7,28.94,WNW,292,0.0,0.0,98,0.00,CLR,FEW,0.00,WeatherDisplay:10.37,2013-08-27 09:01:00,
2013-08-27 05:06:00,61.3,60.7,28.94,WNW,292,0.0,0.0,98,0.00,CLR,FEW,0.00,WeatherDisplay:10.37,2013-08-27 09:06:00,
2013-08-27 05:11:00,61.3,60.7,28.94,SW,225,0.0,0.0,98,0.00,CLR,FEW,0.00,WeatherDisplay:10.37,2013-08-27 09:11:00,
2013-08-27 05:16:00,61.5,60.9,28.94,SW,225,0.0,0.0,98,0.00,CLR,FEW,0.00,WeatherDisplay:10.37,2013-08-27 09:16:00,
2013-08-27 05:21:00,61.2,60.6,28.94,NNW,338,0.0,0.0,98,0.00,CLR,FEW,0.00,WeatherDisplay:10.37,2013-08-27 09:21:00,
2013-08-27 05:26:00,61.0,60.4,28.94,WNW,292,0.0,0.0,98,0.00,CLR,FEW,0.00,WeatherDisplay:10.37,2013-08-27 09:26:00,
2013-08-27 05:31:00,61.0,60.4,28.94,WNW,292,0.0,0.0,98,0.00,CLR,FEW,0.00,WeatherDisplay:10.37,2013-08-27 09:31:00,
2013-08-27 05:36:00,61.0,60.4,28.94,WSW,248,0.0,0.0,98,0.00,CLR,FEW,0.00,WeatherDisplay:10.37,2013-08-27 09:36:00,
2013-08-27 05:41:00,61.0,60.4,28.94,West,270,0.0,0.0,98,0.00,CLR,FEW,0.00,WeatherDisplay:10.37,2013-08-27 09:41:00,
2013-08-27 05:46:00,61.0,60.4,28.94,West,270,0.0,0.0,98,0.00,CLR,FEW,0.00,WeatherDisplay:10.37,2013-08-27 09:46:00,
2013-08-27 05:51:00,60.8,60.2,28.94,West,270,0.0,0.0,98,0.00,CLR,FEW,0.00,WeatherDisplay:10.37,2013-08-27 09:51:00,
2013-08-27 05:56:00,60.8,60.2,28.94,West,270,0.0,0.0,98,0.00,CLR,FEW,0.00,WeatherDisplay:10.37,2013-08-27 09:56:00,
2013-08-27 06:01:00,60.8,60.2,28.94,WSW,248,0.0,0.0,98,0.00,CLR,FEW,0.00,WeatherDisplay:10.37,2013-08-27 10:01:00,
2013-08-27 06:06:00,60.6,60.0,28.94,WSW,248,0.0,0.0,98,0.00,CLR,FEW,0.00,WeatherDisplay:10.37,2013-08-27 10:06:00,
2013-08-27 06:11:00,60.6,60.0,28.94,SW,225,0.0,0.0,98,0.00,CLR,FEW,0.00,WeatherDisplay:10.37,2013-08-27 10:11:00,
2013-08-27 06:17:00,60.8,60.2,28.94,WNW,292,0.0,0.0,98,0.00,CLR,FEW,0.00,WeatherDisplay:10.37,2013-08-27 10:17:00,
2013-08-27 06:22:00,60.6,60.0,28.94,NW,315,0.0,0.0,98,0.00,CLR,FEW,0.00,WeatherDisplay:10.37,2013-08-27 10:22:00,
2013-08-27 06:27:00,60.6,60.0,28.94,SW,225,0.0,0.0,98,0.00,CLR,FEW,0.00,WeatherDisplay:10.37,2013-08-27 10:27:00,
2013-08-27 06:32:00,60.6,60.0,28.94,WNW,292,0.0,0.0,98,0.00,CLR,FEW,0.00,WeatherDisplay:10.37,2013-08-27 10:32:00,
2013-08-27 06:37:00,61.0,60.4,28.94,SW,225,0.0,0.0,98,0.00,CLR,FEW,0.00,WeatherDisplay:10.37,2013-08-27 10:37:00,
2013-08-27 06:42:00,61.9,61.3,28.94,South,180,0.0,0.0,98,0.00,CLR,FEW,0.00,WeatherDisplay:10.37,2013-08-27 10:42:00,
2013-08-27 06:47:00,61.0,60.4,28.94,ESE,112,0.0,0.0,98,0.00,CLR,FEW,0.00,WeatherDisplay:10.37,2013-08-27 10:47:00,
2013-08-27 06:52:00,61.0,60.4,28.94,ESE,112,0.0,0.0,98,0.00,CLR,FEW,0.00,WeatherDisplay:10.37,2013-08-27 10:52:00,
2013-08-27 06:57:00,60.8,60.2,28.94,WNW,292,0.0,0.0,98,0.00,CLR,FEW,0.00,WeatherDisplay:10.37,2013-08-27 10:57:00,
2013-08-27 07:02:00,60.6,60.0,28.94,WSW,248,0.0,0.0,98,0.00,CLR,FEW,0.00,WeatherDisplay:10.37,2013-08-27 11:02:00,
2013-08-27 07:07:00,60.6,60.0,28.94,WSW,248,0.0,0.0,98,0.00,CLR,FEW,0.00,WeatherDisplay:10.37,2013-08-27 11:07:00,
2013-08-27 07:12:00,60.4,59.8,28.94,West,270,0.0,0.0,98,0.00,CLR,FEW,0.00,WeatherDisplay:10.37,2013-08-27 11:12:00,
2013-08-27 07:17:00,60.6,60.0,28.94,NNW,338,0.0,0.0,98,0.00,CLR,FEW,0.00,WeatherDisplay:10.37,2013-08-27 11:17:00,
2013-08-27 07:22:00,60.6,60.0,28.94,ESE,112,0.0,0.0,98,0.00,CLR,FEW,0.00,WeatherDisplay:10.37,2013-08-27 11:22:00,
2013-08-27 07:27:00,61.3,60.7,28.94,South,180,0.0,0.0,98,0.00,CLR,FEW,0.00,WeatherDisplay:10.37,2013-08-27 11:27:00,
2013-08-27 07:33:00,62.1,61.5,28.94,SSW,202,0.0,0.0,98,0.00,CLR,FEW,0.00,WeatherDisplay:10.37,2013-08-27 11:33:00,
2013-08-27 07:38:00,62.6,62.0,28.94,NNW,338,0.0,0.0,98,0.00,CLR,FEW,0.00,WeatherDisplay:10.37,2013-08-27 11:38:00,
2013-08-27 07:43:00,63.0,62.4,28.94,North,360,0.0,0.0,98,0.00,CLR,FEW,0.00,WeatherDisplay:10.37,2013-08-27 11:43:00,
2013-08-27 07:48:00,63.5,62.9,28.94,NW,315,0.0,0.0,98,0.00,CLR,FEW,0.00,WeatherDisplay:10.37,2013-08-27 11:48:00,
2013-08-27 07:53:00,63.7,63.1,28.94,NW,315,0.0,0.0,98,0.00,CLR,FEW,0.00,WeatherDisplay:10.37,2013-08-27 11:53:00,
2013-08-27 07:58:00,63.9,63.3,28.94,NW,315,0.0,0.0,98,0.00,CLR,FEW,0.00,WeatherDisplay:10.37,2013-08-27 11:58:00,
2013-08-27 08:03:00,63.5,62.9,28.94,North,360,0.0,0.0,98,0.00,CLR,FEW,0.00,WeatherDisplay:10.37,2013-08-27 12:03:00,
2013-08-27 08:08:00,64.6,64.0,28.94,North,360,0.0,0.0,98,0.00,CLR,FEW,0.00,WeatherDisplay:10.37,2013-08-27 12:08:00,
2013-08-27 08:13:00,65.5,64.9,28.94,North,360,0.0,0.0,98,0.00,CLR,FEW,0.00,WeatherDisplay:10.37,2013-08-27 12:13:00,
2013-08-27 08:18:00,66.7,66.1,28.94,NNW,338,0.0,0.0,98,0.00,CLR,FEW,0.00,WeatherDisplay:10.37,2013-08-27 12:18:00,
2013-08-27 08:23:00,67.6,67.0,28.94,WNW,292,0.0,0.0,98,0.00,CLR,FEW,0.00,WeatherDisplay:10.37,2013-08-27 12:23:00,
2013-08-27 08:28:00,68.9,68.3,28.94,NW,315,0.0,0.0,98,0.00,CLR,FEW,0.00,WeatherDisplay:10.37,2013-08-27 12:28:00,
2013-08-27 08:33:00,69.8,69.2,28.94,SW,225,0.0,0.0,98,0.00,CLR,FEW,0.00,WeatherDisplay:10.37,2013-08-27 12:33:00,
2013-08-27 08:38:00,71.1,70.5,28.94,WSW,248,0.0,0.0,98,0.00,CLR,FEW,0.00,WeatherDisplay:10.37,2013-08-27 12:38:00,
2013-08-27 08:43:00,71.4,70.8,28.94,NW,315,0.0,0.0,98,0.00,CLR,FEW,0.00,WeatherDisplay:10.37,2013-08-27 12:43:00,
2013-08-27 08:49:00,72.1,71.5,28.94,NNW,338,0.0,0.0,98,0.00,CLR,FEW,0.00,WeatherDisplay:10.37,2013-08-27 12:49:00,
2013-08-27 08:54:00,72.5,70.4,28.94,WNW,292,2.3,2.3,93,0.00,CLR,FEW,0.00,WeatherDisplay:10.37,2013-08-27 12:54:00,
2013-08-27 08:59:00,73.9,70.1,28.94,WNW,292,0.0,0.0,88,0.00,CLR,FEW,0.00,WeatherDisplay:10.37,2013-08-27 12:59:00,
2013-08-27 09:04:00,74.5,70.7,28.94,West,270,0.0,0.0,88,0.00,CLR,FEW,0.00,WeatherDisplay:10.37,2013-08-27 13:04:00,
2013-08-27 09:09:00,76.1,70.6,28.94,NNE,22,0.0,0.0,83,0.00,CLR,FEW,0.00,WeatherDisplay:10.37,2013-08-27 13:09:00,
2013-08-27 09:14:00,77.2,71.3,28.94,WNW,292,0.0,0.0,82,0.00,CLR,FEW,0.00,WeatherDisplay:10.37,2013-08-27 13:14:00,
2013-08-27 09:19:00,78.4,71.3,28.94,North,360,0.0,0.0,79,0.00,CLR,FEW,0.00,WeatherDisplay:10.37,2013-08-27 13:19:00,
2013-08-27 09:24:00,78.6,70.8,28.93,North,360,1.1,1.1,77,0.00,CLR,FEW,0.00,WeatherDisplay:10.37,2013-08-27 13:24:00,
2013-08-27 09:29:00,79.0,70.8,28.93,NNW,338,1.2,1.2,76,0.00,CLR,FEW,0.00,WeatherDisplay:10.37,2013-08-27 13:29:00,
2013-08-27 09:34:00,74.7,69.2,28.93,NE,45,2.3,0.0,83,0.00,CLR,FEW,0.00,WeatherDisplay:10.37,2013-08-27 13:34:00,
2013-08-27 09:39:00,75.2,69.3,28.93,NNE,22,0.0,0.0,82,0.00,CLR,FEW,0.00,WeatherDisplay:10.37,2013-08-27 13:39:00,
2013-08-27 09:44:00,75.9,70.0,28.93,West,270,2.3,2.3,82,0.00,CLR,FEW,0.00,WeatherDisplay:10.37,2013-08-27 13:44:00,
2013-08-27 09:49:00,76.1,69.5,28.93,NNW,338,2.2,2.2,80,0.00,CLR,FEW,0.00,WeatherDisplay:10.37,2013-08-27 13:49:00,
2013-08-27 09:54:00,77.0,68.9,28.93,ENE,68,2.3,0.0,76,0.00,CLR,FEW,0.00,WeatherDisplay:10.37,2013-08-27 13:54:00,
2013-08-27 09:59:00,77.5,70.1,28.93,NNW,338,0.0,0.0,78,0.00,CLR,FEW,0.00,WeatherDisplay:10.37,2013-08-27 13:59:00,
2013-08-27 10:05:00,78.1,69.1,28.93,SW,225,2.3,2.5,74,0.00,CLR,FEW,0.00,WeatherDisplay:10.37,2013-08-27 14:05:00,
2013-08-27 10:10:00,77.5,68.9,28.93,West,270,2.3,2.3,75,0.00,CLR,FEW,0.00,WeatherDisplay:10.37,2013-08-27 14:10:00,
2013-08-27 10:15:00,78.4,69.4,28.93,WSW,248,1.2,1.4,74,0.00,CLR,FEW,0.00,WeatherDisplay:10.37,2013-08-27 14:15:00,
2013-08-27 10:20:00,78.3,69.3,28.93,WNW,292,1.2,1.4,74,0.00,CLR,FEW,0.00,WeatherDisplay:10.37,2013-08-27 14:20:00,
2013-08-27 10:25:00,78.6,70.0,28.93,SW,225,3.5,3.5,75,0.00,CLR,FEW,0.00,WeatherDisplay:10.37,2013-08-27 14:25:00,
2013-08-27 10:30:00,79.3,70.7,28.93,WSW,248,1.2,1.2,75,0.00,CLR,FEW,0.00,WeatherDisplay:10.37,2013-08-27 14:30:00,
2013-08-27 10:35:00,80.1,71.1,28.93,SSW,202,1.7,1.7,74,0.00,CLR,FEW,0.00,WeatherDisplay:10.37,2013-08-27 14:35:00,
2013-08-27 10:40:00,79.9,70.1,28.93,WNW,292,3.5,3.5,72,0.00,CLR,FEW,0.00,WeatherDisplay:10.37,2013-08-27 14:40:00,
2013-08-27 10:45:00,81.0,71.1,28.93,NNE,22,1.2,1.2,72,0.00,CLR,FEW,0.00,WeatherDisplay:10.37,2013-08-27 14:45:00,
2013-08-27 10:50:00,81.9,70.7,28.92,NNW,338,1.7,1.7,69,0.00,CLR,FEW,0.00,WeatherDisplay:10.37,2013-08-27 14:50:00,
2013-08-27 10:55:00,81.9,69.9,28.92,WNW,292,2.7,2.7,67,0.00,CLR,FEW,0.00,WeatherDisplay:10.37,2013-08-27 14:55:00,
2013-08-27 11:00:00,81.7,69.7,28.93,ESE,112,2.3,2.3,67,0.00,CLR,FEW,0.00,WeatherDisplay:10.37,2013-08-27 15:00:00,
2013-08-27 11:05:00,81.9,69.9,28.93,SE,135,1.2,0.0,67,0.00,CLR,FEW,0.00,WeatherDisplay:10.37,2013-08-27 15:05:00,
2013-08-27 11:10:00,81.9,69.4,28.93,West,270,1.2,1.5,66,0.00,CLR,FEW,0.00,WeatherDisplay:10.37,2013-08-27 15:10:00,
2013-08-27 11:15:00,83.3,70.3,28.93,NNE,22,3.5,3.5,65,0.00,CLR,FEW,0.00,WeatherDisplay:10.37,2013-08-27 15:15:00,
2013-08-27 11:21:00,82.4,69.0,28.93,NNE,22,1.7,1.7,64,0.00,CLR,FEW,0.00,WeatherDisplay:10.37,2013-08-27 15:21:00,
2013-08-27 11:26:00,82.4,69.0,28.93,WSW,248,3.5,3.5,64,0.00,CLR,FEW,0.00,WeatherDisplay:10.37,2013-08-27 15:26:00,
2013-08-27 11:31:00,82.4,70.3,28.93,NW,315,1.7,1.7,67,0.00,CLR,FEW,0.00,WeatherDisplay:10.37,2013-08-27 15:31:00,
2013-08-27 11:36:00,83.1,70.1,28.93,East,90,0.0,0.0,65,0.00,CLR,FEW,0.00,WeatherDisplay:10.37,2013-08-27 15:36:00,
2013-08-27 11:41:00,83.7,70.7,28.93,NE,45,1.2,0.0,65,0.00,CLR,FEW,0.00,WeatherDisplay:10.37,2013-08-27 15:41:00,
2013-08-27 11:46:00,84.2,70.7,28.93,NW,315,3.5,3.5,64,0.00,CLR,FEW,0.00,WeatherDisplay:10.37,2013-08-27 15:46:00,
2013-08-27 11:51:00,84.2,71.6,28.92,North,360,5.8,5.8,66,0.00,CLR,FEW,0.00,WeatherDisplay:10.37,2013-08-27 15:51:00,
2013-08-27 11:56:00,84.4,71.3,28.92,ESE,112,2.3,0.0,65,0.00,CLR,FEW,0.00,WeatherDisplay:10.37,2013-08-27 15:56:00,
2013-08-27 12:01:00,85.1,70.6,28.91,North,360,4.6,4.6,62,0.00,CLR,FEW,0.00,WeatherDisplay:10.37,2013-08-27 16:01:00,
2013-08-27 12:06:00,84.4,70.4,28.91,SSE,158,3.5,3.5,63,0.00,CLR,FEW,0.00,WeatherDisplay:10.37,2013-08-27 16:06:00,
2013-08-27 12:11:00,85.1,70.6,28.92,NNW,338,5.8,5.8,62,0.00,CLR,FEW,0.00,WeatherDisplay:10.37,2013-08-27 16:11:00,
2013-08-27 12:16:00,84.9,70.4,28.92,NNW,338,3.5,3.5,62,0.00,CLR,FEW,0.00,WeatherDisplay:10.37,2013-08-27 16:16:00,
2013-08-27 12:21:00,84.4,70.4,28.92,NNW,338,2.3,2.3,63,0.00,CLR,FEW,0.00,WeatherDisplay:10.37,2013-08-27 16:21:00,
2013-08-27 12:26:00,84.4,70.9,28.92,NW,315,2.7,3.3,64,0.00,CLR,FEW,0.00,WeatherDisplay:10.37,2013-08-27 16:26:00,
2013-08-27 12:31:00,85.5,70.5,28.92,West,270,1.7,1.7,61,0.00,CLR,FEW,0.00,WeatherDisplay:10.37,2013-08-27 16:31:00,
2013-08-27 12:37:00,86.0,71.0,28.91,South,180,3.5,3.5,61,0.00,CLR,FEW,0.00,WeatherDisplay:10.37,2013-08-27 16:37:00,
2013-08-27 12:42:00,85.6,70.1,28.91,SSE,158,3.5,3.5,60,0.00,CLR,FEW,0.00,WeatherDisplay:10.37,2013-08-27 16:42:00,
2013-08-27 12:47:00,84.2,69.3,28.91,SW,225,4.6,4.6,61,0.00,CLR,FEW,0.00,WeatherDisplay:10.37,2013-08-27 16:47:00,
2013-08-27 12:52:00,86.4,69.9,28.90,East,90,1.2,1.2,58,0.00,CLR,FEW,0.00,WeatherDisplay:10.37,2013-08-27 16:52:00,
2013-08-27 12:57:00,84.4,70.4,28.90,SSE,158,1.2,1.2,63,0.00,CLR,FEW,0.00,WeatherDisplay:10.37,2013-08-27 16:57:00,
2013-08-27 13:02:00,86.7,71.2,28.90,SE,135,3.5,3.5,60,0.00,CLR,FEW,0.00,WeatherDisplay:10.37,2013-08-27 17:02:00,
2013-08-27 13:07:00,86.0,72.4,28.90,NNE,22,2.3,2.3,64,0.00,CLR,FEW,0.00,WeatherDisplay:10.37,2013-08-27 17:07:00,
2013-08-27 13:12:00,85.6,71.6,28.90,North,360,2.7,2.7,63,0.00,CLR,FEW,0.00,WeatherDisplay:10.37,2013-08-27 17:12:00,
2013-08-27 13:17:00,87.3,71.7,28.90,NW,315,1.2,1.2,60,0.00,CLR,FEW,0.00,WeatherDisplay:10.37,2013-08-27 17:17:00,
2013-08-27 13:22:00,86.9,71.3,28.90,WSW,248,3.5,3.5,60,0.00,CLR,FEW,0.00,WeatherDisplay:10.37,2013-08-27 17:22:00,
2013-08-27 13:27:00,86.0,71.9,28.89,West,270,2.3,2.3,63,0.00,CLR,FEW,0.00,WeatherDisplay:10.37,2013-08-27 17:27:00,
2013-08-27 13:32:00,87.6,72.0,28.89,West,270,2.3,2.3,60,0.00,CLR,FEW,0.00,WeatherDisplay:10.37,2013-08-27 17:32:00,
2013-08-27 13:37:00,85.8,71.3,28.89,North,360,4.6,4.6,62,0.00,CLR,FEW,0.00,WeatherDisplay:10.37,2013-08-27 17:37:00,
2013-08-27 13:42:00,85.6,70.6,28.89,North,360,3.7,3.7,61,0.00,CLR,FEW,0.00,WeatherDisplay:10.37,2013-08-27 17:42:00,
2013-08-27 13:47:00,85.3,70.3,28.89,NE,45,1.2,1.2,61,0.00,CLR,FEW,0.00,WeatherDisplay:10.37,2013-08-27 17:47:00,
2013-08-27 13:53:00,87.3,70.7,28.89,NNE,22,1.2,1.2,58,0.00,CLR,FEW,0.00,WeatherDisplay:10.37,2013-08-27 17:53:00,
2013-08-27 13:58:00,88.3,70.1,28.89,ENE,68,4.6,4.6,55,0.00,CLR,FEW,0.00,WeatherDisplay:10.37,2013-08-27 17:58:00,
2013-08-27 14:03:00,87.4,70.3,28.89,NNW,338,3.5,3.5,57,0.00,CLR,FEW,0.00,WeatherDisplay:10.37,2013-08-27 18:03:00,
2013-08-27 14:08:00,87.4,70.3,28.89,West,270,3.5,3.5,57,0.00,CLR,FEW,0.00,WeatherDisplay:10.37,2013-08-27 18:08:00,
2013-08-27 14:13:00,88.2,70.0,28.88,WSW,248,3.5,3.5,55,0.00,CLR,FEW,0.00,WeatherDisplay:10.37,2013-08-27 18:13:00,
2013-08-27 14:18:00,88.9,71.2,28.88,North,360,2.3,2.3,56,0.00,CLR,FEW,0.00,WeatherDisplay:10.37,2013-08-27 18:18:00,
2013-08-27 14:23:00,89.8,70.9,28.88,ESE,112,3.5,3.6,54,0.00,CLR,FEW,0.00,WeatherDisplay:10.37,2013-08-27 18:23:00,
2013-08-27 14:28:00,90.3,70.8,28.88,NNE,22,1.2,1.2,53,0.00,CLR,FEW,0.00,WeatherDisplay:10.37,2013-08-27 18:28:00,
2013-08-27 14:33:00,88.7,71.0,28.88,NNE,22,5.8,5.8,56,0.00,CLR,FEW,0.00,WeatherDisplay:10.37,2013-08-27 18:33:00,
2013-08-27 14:38:00,88.7,68.8,28.87,WNW,292,5.8,5.8,52,0.00,CLR,FEW,0.00,WeatherDisplay:10.37,2013-08-27 18:38:00,
2013-08-27 14:43:00,88.9,70.1,28.87,South,180,2.2,2.2,54,0.00,CLR,FEW,0.00,WeatherDisplay:10.37,2013-08-27 18:43:00,
2013-08-27 14:48:00,89.2,69.8,28.87,NE,45,4.6,4.6,53,0.00,CLR,FEW,0.00,WeatherDisplay:10.37,2013-08-27 18:48:00,
2013-08-27 14:53:00,89.4,72.2,28.87,NNW,338,2.7,2.7,57,0.00,CLR,FEW,0.00,WeatherDisplay:10.37,2013-08-27 18:53:00,
2013-08-27 14:58:00,87.3,71.2,28.87,East,90,2.7,2.7,59,0.00,CLR,FEW,0.00,WeatherDisplay:10.37,2013-08-27 18:58:00,
2013-08-27 15:03:00,88.5,71.3,28.86,ESE,112,0.0,0.0,57,0.00,CLR,FEW,0.00,WeatherDisplay:10.37,2013-08-27 19:03:00,
2013-08-27 15:09:00,88.2,68.4,28.86,NW,315,3.5,3.5,52,0.00,CLR,FEW,0.00,WeatherDisplay:10.37,2013-08-27 19:09:00,
2013-08-27 15:14:00,88.7,70.5,28.86,ESE,112,4.6,4.6,55,0.00,CLR,FEW,0.00,WeatherDisplay:10.37,2013-08-27 19:14:00,
2013-08-27 15:19:00,88.7,68.2,28.86,SSE,158,3.7,3.7,51,0.00,CLR,FEW,0.00,WeatherDisplay:10.37,2013-08-27 19:19:00,
2013-08-27 15:24:00,88.3,69.0,28.85,South,180,3.7,3.7,53,0.00,CLR,FEW,0.00,WeatherDisplay:10.37,2013-08-27 19:24:00,
2013-08-27 15:29:00,88.9,70.1,28.85,SSE,158,3.5,3.5,54,0.00,CLR,FEW,0.00,WeatherDisplay:10.37,2013-08-27 19:29:00,
2013-08-27 15:34:00,87.8,69.1,28.85,NNE,22,3.5,3.5,54,0.00,CLR,FEW,0.00,WeatherDisplay:10.37,2013-08-27 19:34:00,
2013-08-27 15:39:00,86.4,71.8,28.86,ENE,68,2.3,2.3,62,0.00,CLR,FEW,0.00,WeatherDisplay:10.37,2013-08-27 19:39:00,
2013-08-27 15:44:00,88.0,69.8,28.86,SW,225,2.3,2.3,55,0.00,CLR,FEW,0.00,WeatherDisplay:10.37,2013-08-27 19:44:00,
2013-08-27 15:49:00,87.8,70.1,28.85,NNW,338,0.0,0.0,56,0.00,CLR,FEW,0.00,WeatherDisplay:10.37,2013-08-27 19:49:00,
2013-08-27 15:54:00,87.6,70.0,28.85,SW,225,2.3,0.0,56,0.00,CLR,FEW,0.00,WeatherDisplay:10.37,2013-08-27 19:54:00,
2013-08-27 15:59:00,88.2,70.5,28.85,SW,225,2.7,2.7,56,0.00,CLR,FEW,0.00,WeatherDisplay:10.37,2013-08-27 19:59:00,
2013-08-27 16:04:00,87.1,69.0,28.85,South,180,2.7,2.7,55,0.00,CLR,FEW,0.00,WeatherDisplay:10.37,2013-08-27 20:04:00,
2013-08-27 16:09:00,86.4,68.8,28.85,ESE,112,2.7,2.7,56,0.00,CLR,FEW,0.00,WeatherDisplay:10.37,2013-08-27 20:09:00,
2013-08-27 16:14:00,86.2,69.7,28.84,SW,225,3.7,3.7,58,0.00,CLR,FEW,0.00,WeatherDisplay:10.37,2013-08-27 20:14:00,
2013-08-27 16:19:00,86.2,69.7,28.84,SSW,202,3.7,3.7,58,0.00,CLR,FEW,0.00,WeatherDisplay:10.37,2013-08-27 20:19:00,
2013-08-27 16:25:00,86.2,71.6,28.84,West,270,3.5,3.5,62,0.00,CLR,FEW,0.00,WeatherDisplay:10.37,2013-08-27 20:25:00,
2013-08-27 16:30:00,86.4,71.8,28.84,SW,225,4.6,4.6,62,0.00,CLR,FEW,0.00,WeatherDisplay:10.37,2013-08-27 20:30:00,
2013-08-27 16:35:00,86.4,71.8,28.85,WSW,248,3.5,3.5,62,0.00,CLR,FEW,0.00,WeatherDisplay:10.37,2013-08-27 20:35:00,
2013-08-27 16:40:00,86.0,70.0,28.85,SSW,202,4.6,4.7,59,0.00,CLR,FEW,0.00,WeatherDisplay:10.37,2013-08-27 20:40:00,
2013-08-27 16:45:00,86.0,70.0,28.85,SW,225,4.6,4.6,59,0.00,CLR,FEW,0.00,WeatherDisplay:10.37,2013-08-27 20:45:00,
2013-08-27 16:50:00,86.4,71.4,28.84,WSW,248,4.2,4.2,61,0.00,CLR,FEW,0.00,WeatherDisplay:10.37,2013-08-27 20:50:00,
2013-08-27 16:55:00,86.2,70.2,28.84,WSW,248,4.7,4.7,59,0.00,CLR,FEW,0.00,WeatherDisplay:10.37,2013-08-27 20:55:00,
2013-08-27 17:00:00,86.2,70.2,28.84,WSW,248,4.7,4.7,59,0.00,CLR,FEW,0.00,WeatherDisplay:10.37,2013-08-27 21:00:00,
2013-08-27 17:05:00,86.2,70.2,28.84,WSW,248,4.7,4.7,59,0.00,CLR,FEW,0.00,WeatherDisplay:10.37,2013-08-27 21:05:00,
2013-08-27 17:11:00,86.2,70.2,28.84,WSW,248,4.7,4.7,59,0.00,CLR,FEW,0.00,WeatherDisplay:10.37,2013-08-27 21:11:00,
2013-08-27 17:36:00,86.2,70.2,28.84,WSW,248,4.7,4.7,59,0.00,CLR,FEW,0.00,WeatherDisplay:10.37,2013-08-27 21:36:00,
2013-08-27 17:47:00,86.2,70.2,28.84,WSW,248,4.7,4.7,59,0.00,CLR,FEW,0.00,WeatherDisplay:10.37,2013-08-27 21:47:00,
2013-08-27 17:52:00,84.2,71.6,28.84,SSW,202,3.7,3.7,66,0.00,CLR,FEW,0.00,WeatherDisplay:10.37,2013-08-27 21:52:00,
2013-08-27 17:57:00,84.2,71.6,28.84,SSW,202,3.7,3.7,66,0.00,CLR,FEW,0.00,WeatherDisplay:10.37,2013-08-27 21:57:00,
2013-08-27 18:02:00,84.2,71.6,28.84,SSW,202,3.7,3.7,66,0.00,CLR,FEW,0.00,WeatherDisplay:10.37,2013-08-27 22:02:00,
2013-08-27 18:07:00,84.2,71.6,28.84,SSW,202,3.7,3.7,66,0.00,CLR,FEW,0.00,WeatherDisplay:10.37,2013-08-27 22:07:00,
2013-08-27 18:12:00,84.2,71.6,28.84,SSW,202,3.7,3.7,66,0.00,CLR,FEW,0.00,WeatherDisplay:10.37,2013-08-27 22:12:00,
2013-08-27 18:17:00,84.2,71.6,28.84,SSW,202,3.7,3.7,66,0.00,CLR,FEW,0.00,WeatherDisplay:10.37,2013-08-27 22:17:00,
2013-08-27 18:22:00,84.2,71.6,28.84,SSW,202,3.7,3.7,66,0.00,CLR,FEW,0.00,WeatherDisplay:10.37,2013-08-27 22:22:00,
2013-08-27 18:27:00,84.2,71.6,28.85,SSW,202,3.7,3.7,66,0.00,CLR,FEW,0.00,WeatherDisplay:10.37,2013-08-27 22:27:00,
2013-08-27 18:32:00,84.2,71.6,28.85,SSW,202,3.7,3.7,66,0.00,CLR,FEW,0.00,WeatherDisplay:10.37,2013-08-27 22:32:00,
2013-08-27 18:37:00,84.2,71.6,28.85,SSW,202,3.7,3.7,66,0.00,CLR,FEW,0.00,WeatherDisplay:10.37,2013-08-27 22:37:00,
2013-08-27 18:42:00,84.2,71.6,28.85,SSW,202,3.7,3.7,66,0.00,CLR,FEW,0.00,WeatherDisplay:10.37,2013-08-27 22:42:00,
2013-08-27 18:47:00,85.5,71.9,28.84,SSW,202,3.5,3.5,64,0.00,CLR,FEW,0.00,WeatherDisplay:10.37,2013-08-27 22:47:00,
2013-08-27 18:52:00,84.6,72.0,28.84,SW,225,2.3,0.0,66,0.00,CLR,FEW,0.00,WeatherDisplay:10.37,2013-08-27 22:52:00,
2013-08-27 18:57:00,83.7,71.6,28.84,SW,225,2.7,2.7,67,0.00,CLR,FEW,0.00,WeatherDisplay:10.37,2013-08-27 22:57:00,
2013-08-27 19:03:00,83.3,71.2,28.84,SSW,202,0.0,0.0,67,0.00,CLR,FEW,0.00,WeatherDisplay:10.37,2013-08-27 23:03:00,
2013-08-27 19:08:00,83.5,71.4,28.84,SW,225,1.7,1.7,67,0.00,CLR,FEW,0.00,WeatherDisplay:10.37,2013-08-27 23:08:00,
2013-08-27 19:13:00,82.9,71.3,28.85,West,270,0.0,0.0,68,0.00,CLR,FEW,0.00,WeatherDisplay:10.37,2013-08-27 23:13:00,
2013-08-27 19:18:00,82.2,71.4,28.85,SW,225,0.0,0.0,70,0.00,CLR,FEW,0.00,WeatherDisplay:10.37,2013-08-27 23:18:00,
2013-08-27 19:23:00,82.0,71.7,28.85,WSW,248,0.0,0.0,71,0.00,CLR,FEW,0.00,WeatherDisplay:10.37,2013-08-27 23:23:00,
2013-08-27 19:28:00,81.3,71.8,28.85,SW,225,0.0,0.0,73,0.00,CLR,FEW,0.00,WeatherDisplay:10.37,2013-08-27 23:28:00,
2013-08-27 19:33:00,81.3,71.8,28.85,West,270,0.0,0.0,73,0.00,CLR,FEW,0.00,WeatherDisplay:10.37,2013-08-27 23:33:00,
2013-08-27 19:38:00,80.2,72.3,28.85,West,270,1.1,1.1,77,0.00,CLR,FEW,0.00,WeatherDisplay:10.37,2013-08-27 23:38:00,
2013-08-27 19:43:00,80.1,71.8,28.85,WSW,248,0.0,0.0,76,0.00,CLR,FEW,0.00,WeatherDisplay:10.37,2013-08-27 23:43:00,
2013-08-27 19:48:00,79.3,71.5,28.85,WSW,248,0.0,0.0,77,0.00,CLR,FEW,0.00,WeatherDisplay:10.37,2013-08-27 23:48:00,
2013-08-27 19:53:00,79.3,71.5,28.85,WSW,248,0.0,0.0,77,0.00,CLR,FEW,0.00,WeatherDisplay:10.37,2013-08-27 23:53:00,
2013-08-27 19:58:00,78.6,71.5,28.85,West,270,0.0,0.0,79,0.00,CLR,FEW,0.00,WeatherDisplay:10.37,2013-08-27 23:58:00,
2013-08-27 20:03:00,77.7,71.0,28.85,West,270,0.0,0.0,80,0.00,CLR,FEW,0.00,WeatherDisplay:10.37,2013-08-28 00:03:00,
2013-08-27 20:08:00,77.4,71.1,28.85,West,270,0.0,0.0,81,0.00,CLR,FEW,0.00,WeatherDisplay:10.37,2013-08-28 00:08:00,
2013-08-27 20:13:00,76.8,71.2,28.85,SSW,202,0.0,0.0,83,0.00,CLR,FEW,0.00,WeatherDisplay:10.37,2013-08-28 00:13:00,
2013-08-27 20:19:00,76.5,70.9,28.85,WSW,248,0.0,0.0,83,0.00,CLR,FEW,0.00,WeatherDisplay:10.37,2013-08-28 00:19:00,
2013-08-27 20:24:00,76.1,70.6,28.85,West,270,0.0,0.0,83,0.00,CLR,FEW,0.00,WeatherDisplay:10.37,2013-08-28 00:24:00,
2013-08-27 20:29:00,75.7,70.5,28.85,West,270,0.0,0.0,84,0.00,CLR,FEW,0.00,WeatherDisplay:10.37,2013-08-28 00:29:00,
2013-08-27 20:34:00,75.7,70.5,28.85,West,270,0.0,0.0,84,0.00,CLR,FEW,0.00,WeatherDisplay:10.37,2013-08-28 00:34:00,
2013-08-27 20:39:00,75.2,70.4,28.85,WNW,292,0.0,0.0,85,0.00,CLR,FEW,0.00,WeatherDisplay:10.37,2013-08-28 00:39:00,
2013-08-27 20:44:00,74.8,70.3,28.85,WNW,292,0.0,0.0,86,0.00,CLR,FEW,0.00,WeatherDisplay:10.37,2013-08-28 00:44:00,
2013-08-27 20:49:00,74.5,70.0,28.85,WNW,292,0.0,0.0,86,0.00,CLR,FEW,0.00,WeatherDisplay:10.37,2013-08-28 00:49:00,
2013-08-27 20:54:00,73.9,69.8,28.85,NNW,338,0.0,0.0,87,0.00,CLR,FEW,0.00,WeatherDisplay:10.37,2013-08-28 00:54:00,
2013-08-27 20:59:00,73.8,70.7,28.85,NNW,338,0.0,0.0,90,0.00,CLR,FEW,0.00,WeatherDisplay:10.37,2013-08-28 00:59:00,
2013-08-27 21:04:00,73.4,70.3,28.85,West,270,0.0,0.0,90,0.00,CLR,FEW,0.00,WeatherDisplay:10.37,2013-08-28 01:04:00,
2013-08-27 21:09:00,73.2,70.4,28.85,WNW,292,0.0,0.0,91,0.00,CLR,FEW,0.00,WeatherDisplay:10.37,2013-08-28 01:09:00,
2013-08-27 21:14:00,72.9,70.4,28.86,West,270,0.0,0.0,92,0.00,CLR,FEW,0.00,WeatherDisplay:10.37,2013-08-28 01:14:00,
2013-08-27 21:19:00,72.7,71.8,28.86,West,270,0.0,0.0,97,0.00,CLR,FEW,0.00,WeatherDisplay:10.37,2013-08-28 01:19:00,
2013-08-27 21:24:00,72.5,71.9,28.86,NNW,338,0.0,0.0,98,0.00,CLR,FEW,0.00,WeatherDisplay:10.37,2013-08-28 01:24:00,
2013-08-27 21:29:00,72.3,71.7,28.86,SW,225,0.0,0.0,98,0.00,CLR,FEW,0.00,WeatherDisplay:10.37,2013-08-28 01:29:00,
2013-08-27 21:35:00,72.1,71.5,28.86,West,270,0.0,0.0,98,0.00,CLR,FEW,0.00,WeatherDisplay:10.37,2013-08-28 01:35:00,
2013-08-27 21:40:00,72.0,71.4,28.86,West,270,0.0,0.0,98,0.00,CLR,FEW,0.00,WeatherDisplay:10.37,2013-08-28 01:40:00,
2013-08-27 21:45:00,71.8,71.2,28.86,West,270,0.0,0.0,98,0.00,CLR,FEW,0.00,WeatherDisplay:10.37,2013-08-28 01:45:00,
2013-08-27 21:50:00,71.8,71.2,28.87,West,270,0.0,0.0,98,0.00,CLR,FEW,0.00,WeatherDisplay:10.37,2013-08-28 01:50:00,
2013-08-27 21:55:00,71.8,71.2,28.87,SW,225,0.0,0.0,98,0.00,CLR,FEW,0.00,WeatherDisplay:10.37,2013-08-28 01:55:00,
2013-08-27 22:00:00,71.6,71.0,28.87,NNW,338,0.0,0.0,98,0.00,CLR,FEW,0.00,WeatherDisplay:10.37,2013-08-28 02:00:00,
2013-08-27 22:05:00,71.6,71.0,28.87,NNW,338,0.0,0.0,98,0.00,CLR,FEW,0.00,WeatherDisplay:10.37,2013-08-28 02:05:00,
2013-08-27 22:10:00,71.2,70.6,28.87,South,180,0.0,0.0,98,0.00,CLR,FEW,0.00,WeatherDisplay:10.37,2013-08-28 02:10:00,
2013-08-27 22:15:00,71.1,70.5,28.87,SW,225,0.0,0.0,98,0.00,CLR,FEW,0.00,WeatherDisplay:10.37,2013-08-28 02:15:00,
2013-08-27 22:20:00,70.9,70.3,28.87,SSW,202,0.0,0.0,98,0.00,CLR,FEW,0.00,WeatherDisplay:10.37,2013-08-28 02:20:00,
2013-08-27 22:25:00,70.5,69.9,28.87,West,270,0.0,0.0,98,0.00,CLR,FEW,0.00,WeatherDisplay:10.37,2013-08-28 02:25:00,
2013-08-27 22:30:00,70.5,69.9,28.87,West,270,0.0,0.0,98,0.00,CLR,FEW,0.00,WeatherDisplay:10.37,2013-08-28 02:30:00,
2013-08-27 22:35:00,70.2,69.6,28.87,West,270,0.0,0.0,98,0.00,CLR,FEW,0.00,WeatherDisplay:10.37,2013-08-28 02:35:00,
2013-08-27 22:41:00,70.0,69.4,28.87,WNW,292,0.0,0.0,98,0.00,CLR,FEW,0.00,WeatherDisplay:10.37,2013-08-28 02:41:00,
2013-08-27 22:46:00,69.8,69.2,28.87,WNW,292,0.0,0.0,98,0.00,CLR,FEW,0.00,WeatherDisplay:10.37,2013-08-28 02:46:00,
2013-08-27 22:51:00,69.6,69.0,28.87,West,270,0.0,0.0,98,0.00,CLR,FEW,0.00,WeatherDisplay:10.37,2013-08-28 02:51:00,
2013-08-27 22:56:00,69.6,69.0,28.87,West,270,0.0,0.0,98,0.00,CLR,FEW,0.00,WeatherDisplay:10.37,2013-08-28 02:56:00,
2013-08-27 23:01:00,69.4,68.8,28.87,South,180,0.0,0.0,98,0.00,CLR,FEW,0.00,WeatherDisplay:10.37,2013-08-28 03:01:00,
2013-08-27 23:06:00,69.4,68.8,28.87,South,180,0.0,0.0,98,0.00,CLR,FEW,0.00,WeatherDisplay:10.37,2013-08-28 03:06:00,
2013-08-27 23:11:00,69.3,68.7,28.88,South,180,0.0,0.0,98,0.00,CLR,FEW,0.00,WeatherDisplay:10.37,2013-08-28 03:11:00,
2013-08-27 23:16:00,69.1,68.5,28.88,SW,225,0.0,0.0,98,0.00,CLR,FEW,0.00,WeatherDisplay:10.37,2013-08-28 03:16:00,
2013-08-27 23:21:00,69.1,68.5,28.88,WNW,292,0.0,0.0,98,0.00,CLR,FEW,0.00,WeatherDisplay:10.37,2013-08-28 03:21:00,
2013-08-27 23:26:00,69.1,68.5,28.87,NNE,22,0.0,0.0,98,0.00,CLR,FEW,0.00,WeatherDisplay:10.37,2013-08-28 03:26:00,
2013-08-27 23:31:00,69.1,68.5,28.87,SSW,202,0.0,0.0,98,0.00,CLR,FEW,0.00,WeatherDisplay:10.37,2013-08-28 03:31:00,
2013-08-27 23:36:00,68.7,68.1,28.88,NNE,22,0.0,0.0,98,0.00,CLR,FEW,0.00,WeatherDisplay:10.37,2013-08-28 03:36:00,
2013-08-27 23:41:00,68.7,68.1,28.88,NNE,22,0.0,0.0,98,0.00,CLR,FEW,0.00,WeatherDisplay:10.37,2013-08-28 03:41:00,
2013-08-27 23:46:00,68.7,68.1,28.88,SSW,202,0.0,0.0,98,0.00,CLR,FEW,0.00,WeatherDisplay:10.37,2013-08-28 03:46:00,
2013-08-27 23:51:00,68.5,67.9,28.87,SSE,158,0.0,0.0,98,0.00,CLR,FEW,0.00,WeatherDisplay:10.37,2013-08-28 03:51:00,
2013-08-27 23:57:00,68.5,67.9,28.87,NNW,338,0.0,0.0,98,0.00,CLR,FEW,0.00,WeatherDisplay:10.37,2013-08-28 03:57:00,